Terminal Aerodrome Forecast
Issued by NWS

Home | Current Version | Previous Version | Text Only | Print | Product List | Glossary On
Versions: 1 2 3 4 5 6 7 8 9 10 11 12 13 14 15 16 17 18 19 20 21
000
FTUS43 KDLH 211700
TAFHYR
TAF
KHYR 211735Z 2118/2218 09008KT P6SM SCT021
     FM212300 15005KT P6SM SKC
     FM221600 17012KT P6SM SKC=

USA.gov is the U.S. government's official web portal to all federal, state and local government web resources and services.